,,,PA_Meas_PMT16A,,PR_Meas_QMR101_102,,RH_Meas_QMH101,,SR_Meas_QMS101,,TA_Meas_QMH101,,GenWind,,GenWind,
date,time,status,PA,status,PR,status,RH,status,SR,status,TA,status,DirAvg,status,SpdAvg,
2010-11-22, 00:00:05,VALID,1002.57,VALID,0,VALID,95.9255,VALID,0,VALID,26.1959,VALID,133,VALID,0.248828,
2010-11-22, 00:01:05,VALID,1002.57,VALID,0,VALID,95.6738,VALID,0,VALID,26.2174,VALID,126,VALID,0.151953,
2010-11-22, 00:02:05,VALID,1002.56,VALID,0,VALID,95.6662,VALID,0,VALID,26.1745,VALID,117,VALID,0.0617188,
2010-11-22, 00:03:05,VALID,1002.55,VALID,0,VALID,95.8569,VALID,0,VALID,26.1765,VALID,117,VALID,0,
2010-11-22, 00:04:05,VALID,1002.52,VALID,0,VALID,96.1086,VALID,0,VALID,26.157,VALID,117,VALID,0.356641,
2010-11-22, 00:05:05,VALID,1002.49,VALID,0,VALID,97.0241,VALID,0,VALID,26.1375,VALID,80,VALID,0.334375,
2010-11-22, 00:06:05,VALID,1002.45,VALID,0,VALID,95.9027,VALID,0,VALID,26.1765,VALID,82,VALID,0.517578,
2010-11-22, 00:07:05,VALID,1002.44,VALID,0,VALID,95.9027,VALID,0,VALID,26.1959,VALID,82,VALID,0.307422,
2010-11-22, 00:08:05,VALID,1002.42,VALID,0,VALID,97.1843,VALID,0,VALID,26.157,VALID,82,VALID,0.440625,
2010-11-22, 00:09:05,VALID,1002.44,VALID,0,VALID,97.8785,VALID,0,VALID,26.1005,VALID,71,VALID,0.412891,
2010-11-22, 00:10:05,VALID,1002.44,VALID,0,VALID,98.6338,VALID,0,VALID,25.9972,VALID,34,VALID,0.376563,
2010-11-22, 00:11:05,VALID,1002.43,VALID,0,VALID,101.228,VALID,0,VALID,25.9408,VALID,34,VALID,0.461328,
2010-11-22, 00:12:05,VALID,1002.41,VALID,0,VALID,104,VALID,0,VALID,25.8239,VALID,34,VALID,0.446875,
2010-11-22, 00:13:05,VALID,1002.4,VALID,0,INVALID,123.84,VALID,0,VALID,25.7071,VALID,23,VALID,0.422266,
2010-11-22, 00:14:05,VALID,1002.37,VALID,0,INVALID,128.432,VALID,0.100563,VALID,25.6292,VALID,24,VALID,0.614844,
2010-11-22, 00:15:05,VALID,1002.39,VALID,0,INVALID,146.642,VALID,0,VALID,25.6292,VALID,17,VALID,0.403125,
2010-11-22, 00:16:05,VALID,1002.37,VALID,0,INVALID,163.533,VALID,0,VALID,25.5707,VALID,17,VALID,0.239844,
2010-11-22, 00:17:05,VALID,1002.35,VALID,0,INVALID,163.578,VALID,0.100563,VALID,25.5532,VALID,28,VALID,0.502734,
2010-11-22, 00:18:05,VALID,1002.31,VALID,0,INVALID,163.578,VALID,0.100563,VALID,25.4734,VALID,28,VALID,0.498437,
2010-11-22, 00:19:05,VALID,1002.24,VALID,0,INVALID,163.563,VALID,0.100563,VALID,25.4344,VALID,27,VALID,0.595312,
2010-11-22, 00:20:05,VALID,1002.24,VALID,0,INVALID,163.594,VALID,0,VALID,25.4149,VALID,25,VALID,0.343359,
2010-11-22, 00:21:05,VALID,1002.2,VALID,0,INVALID,163.571,VALID,0.100563,VALID,25.4149,VALID,25,VALID,0.276172,
2010-11-22, 00:22:05,VALID,1002.16,VALID,0,INVALID,163.578,VALID,0,VALID,25.3955,VALID,20,VALID,0.508203,
2010-11-22, 00:23:05,VALID,1002.17,VALID,0,INVALID,163.571,VALID,0,VALID,25.3955,VALID,20,VALID,0.43125,
2010-11-22, 00:24:05,VALID,1002.15,VALID,0,INVALID,163.578,VALID,0,VALID,25.376,VALID,20,VALID,0.376953,
2010-11-22, 00:25:05,VALID,1002.11,VALID,0,INVALID,163.609,VALID,0,VALID,25.3779,VALID,20,VALID,0.452344,
2010-11-22, 00:26:05,VALID,1002.1,VALID,0,INVALID,163.601,VALID,0,VALID,25.3584,VALID,20,VALID,0.308594,
2010-11-22, 00:27:05,VALID,1002.09,VALID,0,INVALID,163.601,VALID,0,VALID,25.337,VALID,20,VALID,0,
2010-11-22, 00:28:05,VALID,1002.07,VALID,0,INVALID,163.586,VALID,0,VALID,25.3565,VALID,20,VALID,0,
2010-11-22, 00:29:05,VALID,1002.05,VALID,0,INVALID,163.578,VALID,0,VALID,25.3546,VALID,20,VALID,0.228125,
2010-11-22, 00:30:05,VALID,1002.01,VALID,0,INVALID,163.586,VALID,0.100563,VALID,25.3565,VALID,21,VALID,0.300391,
2010-11-22, 00:31:05,VALID,1001.99,VALID,0,INVALID,163.601,VALID,0,VALID,25.3565,VALID,21,VALID,0.340625,
2010-11-22, 00:32:05,VALID,1001.97,VALID,0,INVALID,163.601,VALID,0,VALID,25.3176,VALID,21,VALID,0.303906,
2010-11-22, 00:33:05,VALID,1001.97,VALID,0,INVALID,163.617,VALID,0,VALID,25.3176,VALID,21,VALID,0.314844,
2010-11-22, 00:34:05,VALID,1001.91,VALID,0,INVALID,163.571,VALID,0,VALID,25.3,VALID,21,VALID,0.623438,
2010-11-22, 00:35:05,VALID,1001.91,VALID,0,INVALID,163.578,VALID,0,VALID,25.2611,VALID,21,VALID,0.426562,
2010-11-22, 00:36:05,VALID,1001.87,VALID,0,INVALID,163.594,VALID,0,VALID,25.2202,VALID,21,VALID,0.371094,
2010-11-22, 00:37:05,VALID,1001.85,VALID,0,INVALID,163.601,VALID,0.100563,VALID,25.2221,VALID,9,VALID,0.694531,
2010-11-22, 00:38:05,VALID,1001.82,VALID,0,INVALID,163.617,VALID,0,VALID,25.2202,VALID,9,VALID,0.456641,
2010-11-22, 00:39:05,VALID,1001.8,VALID,0,INVALID,163.609,VALID,0,VALID,25.2007,VALID,9,VALID,0.485547,
2010-11-22, 00:40:05,VALID,1001.78,VALID,0,INVALID,163.609,VALID,0,VALID,25.2221,VALID,9,VALID,0.564453,
2010-11-22, 00:41:05,VALID,1001.75,VALID,0,INVALID,163.586,VALID,0,VALID,25.2007,VALID,360,VALID,0.576953,
2010-11-22, 00:42:05,VALID,1001.71,VALID,0,INVALID,163.586,VALID,0.100563,VALID,25.2397,VALID,33,VALID,0.53125,
2010-11-22, 00:43:05,VALID,1001.68,VALID,0,INVALID,163.586,VALID,0,VALID,25.2786,VALID,34,VALID,0.495313,
2010-11-22, 00:44:05,VALID,1001.64,VALID,0,INVALID,163.578,VALID,0,VALID,25.3565,VALID,37,VALID,0.965234,
2010-11-22, 00:45:05,VALID,1001.62,VALID,0,INVALID,163.571,VALID,0,VALID,25.4344,VALID,13,VALID,0.81875,
2010-11-22, 00:46:05,VALID,1001.61,VALID,0,INVALID,163.533,VALID,0,VALID,25.5902,VALID,30,VALID,0.748047,
2010-11-22, 00:47:05,VALID,1001.64,VALID,0,INVALID,149.358,VALID,0,VALID,25.6681,VALID,26,VALID,0.442578,
2010-11-22, 00:48:05,VALID,1001.61,VALID,0,INVALID,143.492,VALID,0.100563,VALID,25.6876,VALID,26,VALID,0.0140625,
2010-11-22, 00:49:05,VALID,1001.62,VALID,0,INVALID,138.434,VALID,0,VALID,25.6681,VALID,26,VALID,0.540625,
2010-11-22, 00:50:05,VALID,1001.65,VALID,0,INVALID,137.602,VALID,0,VALID,25.6681,VALID,17,VALID,0.323828,
2010-11-22, 00:51:05,VALID,1001.63,VALID,0,INVALID,137.526,VALID,0.100563,VALID,25.6486,VALID,17,VALID,0.572266,
2010-11-22, 00:52:05,VALID,1001.61,VALID,0,INVALID,124.641,VALID,0,VALID,25.6681,VALID,17,VALID,0.465234,
2010-11-22, 00:53:05,VALID,1001.62,VALID,0,INVALID,112.579,VALID,0,VALID,25.785,VALID,18,VALID,0.455469,
2010-11-22, 00:54:05,VALID,1001.62,VALID,0,VALID,104,VALID,0,VALID,25.8044,VALID,27,VALID,0.217187,
2010-11-22, 00:55:05,VALID,1001.61,VALID,0,VALID,104,VALID,0,VALID,25.8629,VALID,27,VALID,0,
2010-11-22, 00:56:05,VALID,1001.6,VALID,0,VALID,104,VALID,0,VALID,25.8823,VALID,27,VALID,0.000390625,
2010-11-22, 00:57:05,VALID,1001.58,VALID,0,VALID,104,VALID,0,VALID,25.8843,VALID,27,VALID,0.16875,
2010-11-22, 00:58:05,VALID,1001.56,VALID,0,VALID,104,VALID,0,VALID,25.8259,VALID,27,VALID,0.239844,
2010-11-22, 00:59:05,VALID,1001.55,VALID,0,INVALID,112.869,VALID,0,VALID,25.744,VALID,27,VALID,0.357031,
2010-11-22, 01:00:05,VALID,1001.5,VALID,0,INVALID,127.12,VALID,0,VALID,25.7071,VALID,27,VALID,0.387109,
2010-11-22, 01:01:05,VALID,1001.55,VALID,0,INVALID,138.823,VALID,0,VALID,25.6486,VALID,27,VALID,0.354297,
2010-11-22, 01:02:05,VALID,1001.53,VALID,0,INVALID,152.982,VALID,0,VALID,25.5902,VALID,27,VALID,0.467578,
2010-11-22, 01:03:05,VALID,1001.49,VALID,0,INVALID,163.517,VALID,0,VALID,25.5707,VALID,35,VALID,0.693359,
2010-11-22, 01:04:05,VALID,1001.49,VALID,0,INVALID,163.556,VALID,0,VALID,25.5123,VALID,4,VALID,0.749219,
2010-11-22, 01:05:05,VALID,1001.49,VALID,0,INVALID,163.563,VALID,0,VALID,25.5337,VALID,3,VALID,0.543359,
2010-11-22, 01:06:05,VALID,1001.49,VALID,0,INVALID,163.556,VALID,0,VALID,25.4753,VALID,12,VALID,0.495313,
2010-11-22, 01:07:05,VALID,1001.51,VALID,0,INVALID,163.571,VALID,0,VALID,25.4734,VALID,16,VALID,0.450391,
2010-11-22, 01:08:05,VALID,1001.49,VALID,0,INVALID,163.548,VALID,0,VALID,25.4928,VALID,22,VALID,0.352344,
2010-11-22, 01:09:05,VALID,1001.48,VALID,0,INVALID,163.548,VALID,0,VALID,25.5318,VALID,24,VALID,0.690234,
2010-11-22, 01:10:05,VALID,1001.46,VALID,0,INVALID,163.563,VALID,0,VALID,25.5142,VALID,24,VALID,0.748047,
2010-11-22, 01:11:05,VALID,1001.44,VALID,0,INVALID,163.556,VALID,0,VALID,25.5142,VALID,23,VALID,0.841797,
2010-11-22, 01:12:05,VALID,1001.43,VALID,0,INVALID,161.038,VALID,0,VALID,25.5941,VALID,31,VALID,0.482031,
2010-11-22, 01:13:05,VALID,1001.4,VALID,0,INVALID,160.13,VALID,0,VALID,25.5921,VALID,30,VALID,0.700391,
2010-11-22, 01:14:05,VALID,1001.36,VALID,0,INVALID,157.002,VALID,0,VALID,25.6116,VALID,25,VALID,0.801953,
2010-11-22, 01:15:05,VALID,1001.32,VALID,0,INVALID,149.755,VALID,0,VALID,25.6116,VALID,5,VALID,1.05273,
2010-11-22, 01:16:05,VALID,1001.27,VALID,0,INVALID,134.886,VALID,0,VALID,25.67,VALID,20,VALID,1.42891,
2010-11-22, 01:17:05,VALID,1001.26,VALID,0,INVALID,125.198,VALID,0,VALID,25.7694,VALID,13,VALID,0.853906,
2010-11-22, 01:18:05,VALID,1001.2,VALID,0,INVALID,120.811,VALID,0,VALID,25.7889,VALID,3,VALID,0.889063,
2010-11-22, 01:19:05,VALID,1001.17,VALID,0,INVALID,119.224,VALID,0,VALID,25.7674,VALID,17,VALID,1.11016,
2010-11-22, 01:20:05,VALID,1001.19,VALID,0,INVALID,118.347,VALID,0,VALID,25.7869,VALID,24,VALID,1.37695,
2010-11-22, 01:21:05,VALID,1001.17,VALID,0,INVALID,112.656,VALID,0,VALID,25.8453,VALID,30,VALID,1.23672,
2010-11-22, 01:22:05,VALID,1001.12,VALID,0,VALID,104,VALID,0,VALID,25.9038,VALID,18,VALID,0.798828,
2010-11-22, 01:23:05,VALID,1001.11,VALID,0,VALID,104,VALID,0,VALID,25.9427,VALID,18,VALID,0.948438,
2010-11-22, 01:24:05,VALID,1001.07,VALID,0,VALID,104,VALID,0,VALID,25.9232,VALID,18,VALID,0.697266,
2010-11-22, 01:25:05,VALID,1001.07,VALID,0,VALID,104,VALID,0,VALID,25.9038,VALID,353,VALID,1.2625,
2010-11-22, 01:26:05,VALID,1001.02,VALID,0,VALID,101.716,VALID,0,VALID,25.9817,VALID,2,VALID,1.89805,
2010-11-22, 01:27:05,VALID,1001,VALID,0,VALID,100.739,VALID,0,VALID,26.0596,VALID,357,VALID,0.807422,
2010-11-22, 01:28:05,VALID,1001,VALID,0,VALID,100.068,VALID,0,VALID,26.0401,VALID,26,VALID,1.17422,
2010-11-22, 01:29:05,VALID,1000.95,VALID,0,VALID,99.473,VALID,0,VALID,26.0206,VALID,13,VALID,1.12969,
2010-11-22, 01:30:05,VALID,1000.94,VALID,0,VALID,98.9161,VALID,0,VALID,26.0401,VALID,27,VALID,0.953516,
2010-11-22, 01:31:05,VALID,1000.9,VALID,0,VALID,99.1678,VALID,0,VALID,26.0401,VALID,6,VALID,0.610156,
2010-11-22, 01:32:05,VALID,1000.84,VALID,0,VALID,98.8932,VALID,0,VALID,26.0012,VALID,336,VALID,0.638281,
2010-11-22, 01:33:05,VALID,1000.83,VALID,0,VALID,99.0534,VALID,0,VALID,26.0012,VALID,13,VALID,0.778906,
2010-11-22, 01:34:05,VALID,1000.81,VALID,0,VALID,98.8932,VALID,0,VALID,25.9817,VALID,23,VALID,0.660156,
2010-11-22, 01:35:05,VALID,1000.78,VALID,0,VALID,99.3128,VALID,0,VALID,25.9622,VALID,30,VALID,0.655469,
2010-11-22, 01:36:05,VALID,1000.76,VALID,0,VALID,99.4882,VALID,0,VALID,25.9232,VALID,26,VALID,1.45469,
2010-11-22, 01:37:05,VALID,1000.71,VALID,0,VALID,98.7406,VALID,0,VALID,25.9622,VALID,8,VALID,0.54375,
2010-11-22, 01:38:05,VALID,1000.69,VALID,0,VALID,98.9237,VALID,0,VALID,25.9622,VALID,14,VALID,0.788281,
2010-11-22, 01:39:05,VALID,1000.65,VALID,0,VALID,98.8932,VALID,0,VALID,25.9232,VALID,15,VALID,0.457031,
2010-11-22, 01:40:05,VALID,1000.63,VALID,0,VALID,99.3204,VALID,0,VALID,25.9038,VALID,360,VALID,0.997266,
2010-11-22, 01:41:05,VALID,1000.63,VALID,0,VALID,98.9237,VALID,0,VALID,25.9252,VALID,355,VALID,0.682422,
2010-11-22, 01:42:05,VALID,1000.62,VALID,0,VALID,98.6643,VALID,0,VALID,25.9232,VALID,2,VALID,0.542188,
2010-11-22, 01:43:05,VALID,1000.62,VALID,0,VALID,98.8016,VALID,0,VALID,25.9038,VALID,49,VALID,0.250781,
2010-11-22, 01:44:05,VALID,1000.59,VALID,0,VALID,98.3668,VALID,0,VALID,25.9447,VALID,27,VALID,1.12031,
2010-11-22, 01:45:05,VALID,1000.59,VALID,0,VALID,97.6649,VALID,0,VALID,25.9427,VALID,56,VALID,0.564062,
2010-11-22, 01:46:05,VALID,1000.61,VALID,0,VALID,97.642,VALID,0,VALID,25.9622,VALID,44,VALID,0.376563,
2010-11-22, 01:47:05,VALID,1000.55,VALID,0,VALID,97.2911,VALID,0,VALID,25.9642,VALID,41,VALID,0.496484,
2010-11-22, 01:48:05,VALID,1000.57,VALID,0,VALID,97.0775,VALID,0,VALID,26.0226,VALID,106,VALID,0.427344,
2010-11-22, 01:49:05,VALID,1000.5,VALID,0,VALID,96.8639,VALID,0,VALID,25.9817,VALID,93,VALID,0.34375,
2010-11-22, 01:50:05,VALID,1000.52,VALID,0,VALID,96.78,VALID,0,VALID,25.9622,VALID,31,VALID,0.482422,
2010-11-22, 01:51:05,VALID,1000.47,VALID,0,VALID,96.8639,VALID,0,VALID,25.9622,VALID,95,VALID,0.289844,
2010-11-22, 01:52:05,VALID,1000.44,VALID,0,VALID,97.2072,VALID,0,VALID,25.9427,VALID,64,VALID,0.445313,
2010-11-22, 01:53:05,VALID,1000.45,VALID,0,VALID,97.9853,VALID,0,VALID,25.8843,VALID,77,VALID,0.409766,
2010-11-22, 01:54:05,VALID,1000.42,VALID,0,VALID,98.4202,VALID,0,VALID,25.8473,VALID,70,VALID,0.501172,
2010-11-22, 01:55:05,VALID,1000.38,VALID,0,VALID,98.733,VALID,0,VALID,25.785,VALID,117,VALID,0.322266,
2010-11-22, 01:56:05,VALID,1000.38,VALID,0,VALID,99.2594,VALID,0,VALID,25.746,VALID,58,VALID,0.26875,
2010-11-22, 01:57:05,VALID,1000.35,VALID,0,VALID,99.9154,VALID,0,VALID,25.6876,VALID,58,VALID,0.180859,
2010-11-22, 01:58:05,VALID,1000.33,VALID,0,VALID,100.587,VALID,0,VALID,25.6681,VALID,58,VALID,0.227734,
2010-11-22, 01:59:05,VALID,1000.3,VALID,0,VALID,101.411,VALID,0.100563,VALID,25.6097,VALID,58,VALID,0,
2010-11-22, 02:00:05,VALID,1000.32,VALID,0,VALID,103.295,VALID,0.100563,VALID,25.5493,VALID,8,VALID,0.532422,
2010-11-22, 02:01:05,VALID,1000.34,VALID,0,VALID,104,VALID,0.100563,VALID,25.5318,VALID,12,VALID,0.316406,
2010-11-22, 02:02:05,VALID,1000.29,VALID,0,VALID,104,VALID,0,VALID,25.5123,VALID,46,VALID,0.510938,
2010-11-22, 02:03:05,VALID,1000.26,VALID,0,INVALID,110.176,VALID,0.100563,VALID,25.4928,VALID,65,VALID,0.476953,
2010-11-22, 02:04:05,VALID,1000.23,VALID,0,INVALID,110.84,VALID,0.100563,VALID,25.5123,VALID,56,VALID,1.25937,
2010-11-22, 02:05:05,VALID,1000.22,VALID,0,VALID,104,VALID,0,VALID,25.5513,VALID,99,VALID,0.642187,
2010-11-22, 02:06:05,VALID,1000.18,VALID,0,VALID,104,VALID,0.100563,VALID,25.5707,VALID,37,VALID,0.489453,
2010-11-22, 02:07:05,VALID,1000.14,VALID,0,VALID,104,VALID,0,VALID,25.5513,VALID,39,VALID,0.245703,
2010-11-22, 02:08:05,VALID,1000.16,VALID,0,INVALID,109.917,VALID,0.100563,VALID,25.5318,VALID,38,VALID,0.9125,
2010-11-22, 02:09:05,VALID,1000.18,VALID,0,INVALID,109.795,VALID,0.100563,VALID,25.5513,VALID,45,VALID,0.814062,
2010-11-22, 02:10:05,VALID,1000.13,VALID,0,VALID,104,VALID,0,VALID,25.6136,VALID,47,VALID,0.187109,
2010-11-22, 02:11:05,VALID,1000.12,VALID,0,VALID,104,VALID,0,VALID,25.5727,VALID,70,VALID,0.477344,
2010-11-22, 02:12:05,VALID,1000.11,VALID,0,VALID,104,VALID,0,VALID,25.5921,VALID,42,VALID,0.584766,
2010-11-22, 02:13:05,VALID,1000.11,VALID,0,VALID,104,VALID,0,VALID,25.6116,VALID,42,VALID,0.427344,
2010-11-22, 02:14:05,VALID,1000.12,VALID,0,VALID,104,VALID,0,VALID,25.5727,VALID,42,VALID,0.480469,
2010-11-22, 02:15:05,VALID,1000.11,VALID,0,VALID,104,VALID,0,VALID,25.5123,VALID,40,VALID,0.442578,
2010-11-22, 02:16:04,VALID,1000.1,VALID,0,INVALID,110.672,VALID,0,VALID,25.5142,VALID,74,VALID,0.530078,
2010-11-22, 02:17:04,VALID,1000.11,VALID,0,INVALID,111.939,VALID,0,VALID,25.4753,VALID,37,VALID,0.175391,
2010-11-22, 02:18:04,VALID,1000.11,VALID,0,INVALID,112.991,VALID,0,VALID,25.4753,VALID,37,VALID,0.21875,
2010-11-22, 02:19:04,VALID,1000.1,VALID,0,INVALID,114.921,VALID,0,VALID,25.4363,VALID,37,VALID,0.210156,
2010-11-22, 02:20:04,VALID,1000.08,VALID,0,INVALID,118.69,VALID,0,VALID,25.3974,VALID,37,VALID,0.299609,
2010-11-22, 02:21:04,VALID,1000.11,VALID,0,INVALID,124.137,VALID,0,VALID,25.339,VALID,65,VALID,0.573828,
2010-11-22, 02:22:04,VALID,1000.1,VALID,0,INVALID,131.545,VALID,0,VALID,25.3604,VALID,81,VALID,0.437109,
2010-11-22, 02:23:04,VALID,1000.08,VALID,0,INVALID,133.368,VALID,0,VALID,25.2786,VALID,81,VALID,0.3875,
2010-11-22, 02:24:04,VALID,1000.09,VALID,0,INVALID,143.141,VALID,0,VALID,25.2611,VALID,77,VALID,0.254297,
2010-11-22, 02:25:04,VALID,1000.07,VALID,0,INVALID,160.374,VALID,0,VALID,25.2221,VALID,102,VALID,0.394531,
2010-11-22, 02:26:04,VALID,1000.07,VALID,0,INVALID,163.556,VALID,0,VALID,25.2027,VALID,102,VALID,0.403516,
2010-11-22, 02:27:04,VALID,1000.08,VALID,0,INVALID,163.594,VALID,0.100563,VALID,25.1618,VALID,102,VALID,0.474609,
2010-11-22, 02:28:04,VALID,1000.08,VALID,0,INVALID,163.594,VALID,0,VALID,25.1618,VALID,100,VALID,0.309375,
2010-11-22, 02:29:04,VALID,1000.05,VALID,0,INVALID,163.571,VALID,0,VALID,25.1442,VALID,100,VALID,0.194531,
2010-11-22, 02:30:04,VALID,1000.04,VALID,0,INVALID,163.617,VALID,0,VALID,25.1034,VALID,43,VALID,0.327734,
2010-11-22, 02:31:04,VALID,1000.05,VALID,0,INVALID,163.601,VALID,0,VALID,25.1053,VALID,55,VALID,0.626953,
2010-11-22, 02:32:04,VALID,1000.06,VALID,0,INVALID,163.617,VALID,0,VALID,25.0663,VALID,54,VALID,0.176563,
2010-11-22, 02:33:04,VALID,1000.05,VALID,0,INVALID,163.624,VALID,0,VALID,25.0644,VALID,28,VALID,0.333594,
2010-11-22, 02:34:04,VALID,1000.04,VALID,0,INVALID,163.609,VALID,0,VALID,25.0858,VALID,28,VALID,0.367188,
2010-11-22, 02:35:04,VALID,1000.02,VALID,0,INVALID,163.594,VALID,0,VALID,25.0255,VALID,69,VALID,0.527344,
2010-11-22, 02:36:04,VALID,1000.03,VALID,0,INVALID,163.609,VALID,0,VALID,25.0079,VALID,50,VALID,0.481641,
2010-11-22, 02:37:04,VALID,1000.02,VALID,0,INVALID,163.624,VALID,0,VALID,24.9671,VALID,36,VALID,0.425391,
2010-11-22, 02:38:04,VALID,1000.01,VALID,0,INVALID,163.624,VALID,0,VALID,24.9671,VALID,29,VALID,0.612109,
2010-11-22, 02:39:04,VALID,1000.01,VALID,0,INVALID,163.632,VALID,0,VALID,25.0079,VALID,53,VALID,0.726953,
2010-11-22, 02:40:04,VALID,999.963,VALID,0,INVALID,163.594,VALID,0,VALID,25.0274,VALID,21,VALID,0.395703,
2010-11-22, 02:41:04,VALID,999.971,VALID,0,INVALID,163.617,VALID,0,VALID,25.0469,VALID,23,VALID,0.377734,
2010-11-22, 02:42:04,VALID,999.958,VALID,0,INVALID,163.617,VALID,0,VALID,25.1248,VALID,41,VALID,1.10508,
2010-11-22, 02:43:04,VALID,999.913,VALID,0,INVALID,163.617,VALID,0,VALID,25.1813,VALID,37,VALID,0.229297,
2010-11-22, 02:44:04,VALID,999.936,VALID,0,INVALID,163.586,VALID,0,VALID,25.2007,VALID,37,VALID,0.509766,
2010-11-22, 02:45:04,VALID,999.912,VALID,0,INVALID,163.601,VALID,0,VALID,25.2221,VALID,36,VALID,0.410156,
2010-11-22, 02:46:04,VALID,999.931,VALID,0,INVALID,163.617,VALID,0,VALID,25.2221,VALID,36,VALID,0.519141,
2010-11-22, 02:47:04,VALID,999.922,VALID,0,INVALID,163.601,VALID,0,VALID,25.2611,VALID,61,VALID,0.567969,
2010-11-22, 02:48:04,VALID,999.944,VALID,0,INVALID,163.601,VALID,0,VALID,25.3,VALID,27,VALID,0.574219,
2010-11-22, 02:49:04,VALID,999.918,VALID,0,INVALID,163.586,VALID,0,VALID,25.339,VALID,32,VALID,0.708594,
2010-11-22, 02:50:04,VALID,999.873,VALID,0,INVALID,163.578,VALID,0,VALID,25.3584,VALID,77,VALID,0.819141,
2010-11-22, 02:51:04,VALID,999.899,VALID,0,INVALID,163.586,VALID,0,VALID,25.3955,VALID,57,VALID,0.749219,
2010-11-22, 02:52:04,VALID,999.894,VALID,0,INVALID,163.586,VALID,0,VALID,25.3955,VALID,68,VALID,0.410937,
2010-11-22, 02:53:04,VALID,999.907,VALID,0,INVALID,163.563,VALID,0,VALID,25.4169,VALID,37,VALID,0.723047,
2010-11-22, 02:54:04,VALID,999.868,VALID,0,INVALID,163.556,VALID,0,VALID,25.4363,VALID,6,VALID,0.926953,
2010-11-22, 02:55:04,VALID,999.865,VALID,0,INVALID,161.069,VALID,0,VALID,25.5162,VALID,22,VALID,0.921094,
2010-11-22, 02:56:04,VALID,999.866,VALID,0,INVALID,151.952,VALID,0,VALID,25.4948,VALID,32,VALID,1.06094,
2010-11-22, 02:57:04,VALID,999.871,VALID,0,INVALID,148.832,VALID,0,VALID,25.5921,VALID,20,VALID,1.41289,
2010-11-22, 02:58:04,VALID,999.891,VALID,0,INVALID,131.308,VALID,0,VALID,25.6506,VALID,3,VALID,0.778906,
2010-11-22, 02:59:04,VALID,999.889,VALID,0,INVALID,124.145,VALID,0,VALID,25.67,VALID,70,VALID,0.373047,
2010-11-22, 03:00:04,VALID,999.879,VALID,0,INVALID,120.216,VALID,0,VALID,25.6311,VALID,8,VALID,0.522266,
2010-11-22, 03:01:04,VALID,999.883,VALID,0,INVALID,121.681,VALID,0,VALID,25.6097,VALID,17,VALID,1.025,
2010-11-22, 03:02:04,VALID,999.87,VALID,0,INVALID,120.353,VALID,0,VALID,25.6097,VALID,12,VALID,1.61094,
2010-11-22, 03:03:04,VALID,999.878,VALID,0,INVALID,114.99,VALID,0,VALID,25.6895,VALID,355,VALID,1.20547,
2010-11-22, 03:04:04,VALID,999.872,VALID,0,INVALID,109.688,VALID,0,VALID,25.748,VALID,21,VALID,0.958203,
2010-11-22, 03:05:04,VALID,999.874,VALID,0,VALID,104,VALID,0,VALID,25.7674,VALID,24,VALID,1.1543,
2010-11-22, 03:06:04,VALID,999.897,VALID,0,VALID,104,VALID,0,VALID,25.8259,VALID,21,VALID,0.561328,
2010-11-22, 03:07:04,VALID,999.886,VALID,0,VALID,103.684,VALID,0,VALID,25.785,VALID,21,VALID,1.10078,
2010-11-22, 03:08:04,VALID,999.861,VALID,0,VALID,103.753,VALID,0,VALID,25.746,VALID,11,VALID,0.919531,
2010-11-22, 03:09:04,VALID,999.847,VALID,0,VALID,104,VALID,0,VALID,25.6876,VALID,3,VALID,0.923828,
2010-11-22, 03:10:04,VALID,999.801,VALID,0,VALID,104,VALID,0,VALID,25.6506,VALID,17,VALID,1.94453,
2010-11-22, 03:11:04,VALID,999.793,VALID,0,VALID,104,VALID,0,VALID,25.6895,VALID,12,VALID,1.08242,
2010-11-22, 03:12:04,VALID,999.799,VALID,0,VALID,104,VALID,0,VALID,25.67,VALID,27,VALID,0.424219,
2010-11-22, 03:13:04,VALID,999.735,VALID,0,VALID,104,VALID,0,VALID,25.6097,VALID,6,VALID,0.776563,
2010-11-22, 03:14:04,VALID,999.745,VALID,0,VALID,104,VALID,0,VALID,25.5921,VALID,5,VALID,0.869141,
2010-11-22, 03:15:04,VALID,999.786,VALID,0,VALID,104,VALID,0,VALID,25.5902,VALID,64,VALID,0.823828,
2010-11-22, 03:16:04,VALID,999.787,VALID,0,VALID,104,VALID,0.100563,VALID,25.6311,VALID,14,VALID,0.492969,
2010-11-22, 03:17:04,VALID,999.779,VALID,0,VALID,104,VALID,0,VALID,25.5707,VALID,14,VALID,1.3582,
2010-11-22, 03:18:04,VALID,999.777,VALID,0,VALID,104,VALID,0,VALID,25.6116,VALID,357,VALID,1.60586,
2010-11-22, 03:19:04,VALID,999.775,VALID,0,VALID,104,VALID,0,VALID,25.709,VALID,6,VALID,0.624219,
2010-11-22, 03:20:04,VALID,999.788,VALID,0,VALID,102.258,VALID,0,VALID,25.7285,VALID,353,VALID,1.3,
2010-11-22, 03:21:04,VALID,999.807,VALID,0,VALID,100.999,VALID,0,VALID,25.7869,VALID,13,VALID,1.35117,
2010-11-22, 03:22:04,VALID,999.832,VALID,0,VALID,100.236,VALID,0,VALID,25.8064,VALID,23,VALID,1.18711,
2010-11-22, 03:23:04,VALID,999.841,VALID,0,VALID,99.6027,VALID,0,VALID,25.8259,VALID,28,VALID,1.08711,
2010-11-22, 03:24:04,VALID,999.865,VALID,0,VALID,99.0152,VALID,0,VALID,25.8434,VALID,54,VALID,0.8875,
2010-11-22, 03:25:04,VALID,999.89,VALID,0,VALID,98.7177,VALID,0,VALID,25.8843,VALID,7,VALID,0.898828,
2010-11-22, 03:26:04,VALID,999.904,VALID,0,VALID,98.1303,VALID,0,VALID,25.8843,VALID,62,VALID,0.854688,
2010-11-22, 03:27:04,VALID,999.899,VALID,0,VALID,97.5886,VALID,0,VALID,25.9213,VALID,355,VALID,1.68633,
2010-11-22, 03:28:04,VALID,999.965,VALID,0,VALID,96.9554,VALID,0,VALID,26.0012,VALID,10,VALID,1.19258,
2010-11-22, 03:29:04,VALID,999.986,VALID,0,VALID,96.9249,VALID,0,VALID,26.0012,VALID,47,VALID,0.314063,
2010-11-22, 03:30:04,VALID,999.98,VALID,0,VALID,97.4742,VALID,0,VALID,25.9427,VALID,16,VALID,0.850781,
2010-11-22, 03:31:04,VALID,999.993,VALID,0,VALID,97.8557,VALID,0,VALID,25.9232,VALID,27,VALID,0.532422,
2010-11-22, 03:32:04,VALID,999.968,VALID,0,VALID,98.2142,VALID,0,VALID,25.9038,VALID,17,VALID,1.03203,
2010-11-22, 03:33:04,VALID,999.958,VALID,0,VALID,98.2142,VALID,0,VALID,25.9038,VALID,15,VALID,0.58125,
2010-11-22, 03:34:04,VALID,999.974,VALID,0,VALID,98.2142,VALID,0,VALID,25.9038,VALID,26,VALID,1.16406,
2010-11-22, 03:35:04,VALID,999.999,VALID,0,VALID,97.6954,VALID,0,VALID,25.9408,VALID,28,VALID,0.878906,
2010-11-22, 03:36:04,VALID,999.986,VALID,0,VALID,97.1309,VALID,0,VALID,25.9817,VALID,354,VALID,1.16211,
2010-11-22, 03:37:04,VALID,999.999,VALID,0,VALID,97.2606,VALID,0,VALID,25.9622,VALID,13,VALID,1.13437,
2010-11-22, 03:38:04,VALID,1000.01,VALID,0,VALID,97.2911,VALID,0,VALID,25.9817,VALID,21,VALID,1.44961,
2010-11-22, 03:39:04,VALID,1000.01,VALID,0,VALID,97.3903,VALID,0,VALID,25.9622,VALID,34,VALID,0.967969,
2010-11-22, 03:40:04,VALID,999.985,VALID,0,VALID,97.7946,VALID,0,VALID,25.9213,VALID,20,VALID,1.28398,
2010-11-22, 03:41:04,VALID,999.992,VALID,0,VALID,97.2606,VALID,0,VALID,25.9388,VALID,24,VALID,1.82109,
2010-11-22, 03:42:04,VALID,999.991,VALID,0,VALID,97.1385,VALID,0.100563,VALID,25.9602,VALID,28,VALID,0.983984,
2010-11-22, 03:43:04,VALID,999.984,VALID,0,VALID,97.0546,VALID,0.100563,VALID,25.9602,VALID,18,VALID,1.93203,
2010-11-22, 03:44:04,VALID,999.954,VALID,0,VALID,96.9554,VALID,0,VALID,25.9602,VALID,26,VALID,0.759766,